This demonstration page uses our WeatherBlox Daily Observations layout. Learn more.

Left ArrowRight Arrow

Hourly Observations for January 6, 2015

Temp ( °F °C ) Dew Point ( °F °C ) Humidity (%) Winds ( mph kmh ) Pressure ( in mb ) Visibility ( mi km ) Precip ( " mm )
12:52 am 00:52 Mostly Clear 17 -8.3 10 -12.2 74 74 NNW 21 33 30.38 1029 10 16 0.00 0.00
1:52 am 01:52 Mostly Clear 12 -11.1 6 -14.4 77 77 NNW 20 31 30.45 1031 10 16 0.00 0.00
2:52 am 02:52 Partly Cloudy 10 -12.2 5 -15 80 80 NNW 15 24 30.49 1033 10 16 0.00 0.00
3:52 am 03:52 Mostly Cloudy with Light Snow 8 -13.3 4 -15.6 83 83 NNW 14 22 30.55 1034 9 14 0.00 0.03
4:52 am 04:52 Mostly Cloudy 7 -13.9 2 -16.7 80 80 NNW 17 28 30.54 1034 10 16 0.00 0.03
5:52 am 05:52 Mostly Cloudy 5 -15 1 -17.2 83 83 NNW 14 22 30.57 1035 10 16 0.00 0.00
6:52 am 06:52 Partly Cloudy 3 -16.1 -1 -18.3 83 83 NW 8 13 30.63 1037 10 16 0.00 0.00
7:52 am 07:52 Partly Cloudy 2 -16.7 -2 -18.9 83 83 NNW 7 11 30.65 1038 10 16 0.00 0.00
8:52 am 08:52 Mostly Cloudy 4 -15.6 -2 -18.9 76 76 WNW 12 19 30.67 1039 10 16 0.00 0.00
9:52 am 09:52 Cloudy 7 -13.9 -1 -18.3 70 70 NW 10 17 30.67 1039 10 16 0.00 0.00
10:52 am 10:52 Cloudy 8 -13.3 0 -17.8 69 69 NW 9 15 30.64 1038 10 16 0.00 0.00
11:52 am 11:52 Cloudy 11 -11.7 1 -17.2 64 64 W 7 11 30.63 1037 10 16 0.00 0.00
12:52 pm 12:52 Cloudy 13 -10.6 2 -16.7 61 61 NW 3 6 30.58 1036 10 16 0.00 0.00
1:52 pm 13:52 Cloudy 16 -8.9 3 -16.1 56 56 W 8 13 30.53 1034 10 16 0.00 0.00
2:52 pm 14:52 Cloudy 16 -8.9 5 -15 62 62 WNW 9 15 30.55 1035 10 16 0.00 0.00
3:52 pm 15:52 Cloudy 17 -8.3 5 -15 59 59 WNW 9 15 30.54 1034 10 16 0.00 0.00
4:52 pm 16:52 Cloudy 17 -8.3 7 -13.9 64 64 NW 10 17 30.54 1034 10 16 0.00 0.00
5:52 pm 17:52 Cloudy 16 -8.9 6 -14.4 65 65 NW 15 24 30.57 1035 10 16 0.00 0.00
6:52 pm 18:52 Cloudy 16 -8.9 6 -14.4 65 65 NW 13 20 30.60 1036 10 16 0.00 0.00
7:52 pm 19:52 Cloudy with Light Snow 15 -9.4 8 -13.3 74 74 NW 14 22 30.62 1037 4 6 0.00 0.03
8:52 pm 20:52 Windy with Snow Likely 16 -8.9 8 -13.3 71 71 NNW 22 35 30.66 1038 5 8 0.00 0.03
9:09 pm 21:09 Windy with Snow Likely 16 -8.9 9 -12.8 74 74 NNW 23 37 30.68 1039 5 8 0.00 0.03
9:52 pm 21:52 Windy with Snow Likely 15 -9.4 8 -13.3 74 74 NNW 24 39 30.68 1039 5 8 0.00 0.03
10:40 pm 22:40 Cloudy with Blowing Snow 12 -11 3 -16 67 67 N 36 57 30.74 1041 6 10 0.00 0.00
10:52 pm 22:52 Cloudy with Blowing Snow 12 -11.1 2 -16.7 64 64 N 25 41 30.71 1040 6 10 0.00 0.03
11:52 pm 23:52 Cloudy 9 -12.8 0 -17.8 66 66 N 25 41 30.78 1042 10 16 0.00 0.00

Powered by AerisWeather